sat.trackr.live / text

‹ back to catalog

YAOGAN-30 08C

NORAD 46809 · 2020-076C

PAYLOAD ACTIVE UNKNOWN

§ Identity

Operator
Country
PRC
Launch date
2020-10-26
Launch site
XICLF
Launch vehicle
Mass (kg)
RCS (m²)

External: N2YO · Heavens-Above · Gunter

§ Orbital elements

Epoch: 2026-05-25T05:08:24.800352Z

Period
95.84 min
Inclination
34.9954°
Eccentricity
0.0006910
Mean motion
15.02559881 rev/d
Perigee alt
554.2 km
Apogee alt
563.8 km
Semi-major
6,937.1 km
B*
1.6829e-4
RAAN
230.8849°
Arg perigee
233.2349°
Mean anomaly
126.7725°
Rev number
30,468

§ Raw data

YAOGAN-30 08C1 46809U 20076C   26145.21417593  .00002256  00000+0  16829-3 0  99952 46809  34.9954 230.8849 0006910 233.2349 126.7725 15.02559881304684

JSON: /api/v1/satellites/46809 · /tle

For live sub-satellite position, see the globe view (requires WebGL).

§ Visibility from observer

Set your observer location to see the next 7 days of passes ≥ 10°. The values pass through the URL so the page stays shareable.

No JS? Fill the form by hand. The geolocation button needs JavaScript.